Weather observations for the past three days for
Orlando Executive Airport
Metric (Imperial)
Date Time (edt) Wind (kph) Vis. (km) Weather Sky Cond. Temperature (ºC) Relative Humidity Wind Chill (°C) Heat Index (°C) Pressure Precipitation (cm)
Air Dwpt 6 hour altimeter (cm) sea level (mb) 1 hr 3 hr 6 hr
Max. Min.
16 08:53 Calm 16.09 Fair CLR 28.3 23.3 74% 32 76.38 1018.4
16 07:53 SW 7 16.09 Fair CLR 26.7 23.3 26.7 23.9 82% 29 76.33 1017.8
16 06:53 Calm 16.09 Fair CLR 25.6 23.9 90% 27 76.3 1017.5
16 05:53 Calm 16.09 Fair CLR 24.4 22.8 91% 24 76.25 1017.0
16 04:53 Calm 16.09 Fair CLR 25 23.3 90% 26 76.25 1016.6
16 03:53 Calm 16.09 Fair CLR 24.4 22.8 91% 24 76.23 1016.3
16 02:53 Calm 16.09 Fair CLR 24.4 22.8 91% 24 76.2 1016.1
16 01:53 Calm 16.09 Fair CLR 25 22.8 26.7 24.4 88% 26 76.2 1016.1
16 00:53 Calm 16.09 Fair CLR 25 22.8 88% 26 76.23 1016.4
15 23:53 SE 7 16.09 Fair CLR 25 22.8 88% 26 76.23 1016.5
15 22:53 Calm 16.09 Fair CLR 26.1 22.8 82% 28 76.25 1016.6
15 21:53 SW 6 16.09 Mostly Cloudy FEW039 SCT047 BKN110 26.1 22.2 79% 28 76.23 1016.5
15 19:53 N 11 16.09 Overcast OVC100 26.7 21.1 30.6 25 71% 28 76.15 1015.5
15 18:53 W 7 16.09 Overcast OVC110 25.6 21.1 76% 27 76.15 1015.5
15 17:53 W 15 16.09 Overcast FEW042 SCT095 OVC120 25.6 20.6 74% 27 76.12 1015.2
15 16:53 E 17 16.09 Thunderstorm FEW036 BKN095 OVC110 27.8 23.9 79% 32 76.12 1015.0
15 15:53 NE 13 16.09 Mostly Cloudy BKN110 29.4 23.9 72% 34 76.1 1014.6
15 14:53 E 20 16.09 Mostly Cloudy BKN048 30.6 23.3 65% 35 76.1 1014.7
15 13:53 Vrbl 11 16.09 Partly Cloudy SCT041 32.8 23.9 32.8 26.7 59% 39 76.12 1014.9
15 12:53 Calm 16.09 A Few Clouds FEW100 31.7 22.8 59% 36 76.15 1015.3
15 11:53 S 9 16.09 A Few Clouds FEW031 31.1 23.3 63% 36 76.17 1015.8
15 10:53 Calm 16.09 Partly Cloudy SCT024 SCT033 30 24.4 72% 36 76.17 1015.8
15 09:53 SE 6 16.09 Mostly Cloudy BKN020 28.9 24.4 77% 34 76.15 1015.6
15 08:53 SE 6 16.09 A Few Clouds FEW011 27.8 24.4 82% 32 76.12 1015.2
15 07:53 SE 6 16.09 Fair CLR 27.2 25 27.2 25 88% 31 76.12 1015.0
15 06:53 SE 6 16.09 Fair CLR 25 23.9 94% 26 76.07 1014.3
15 05:53 Calm 16.09 Fair CLR 25 23.3 90% 26 76.02 1013.8
15 04:53 Calm 16.09 Fair CLR 25.6 23.3 87% 27 76 1013.5
15 03:53 N 6 16.09 A Few Clouds FEW023 26.1 23.3 85% 28 76 1013.3
15 02:53 Calm 16.09 Fair CLR 26.1 23.3 85% 28 76 1013.4
15 01:53 NE 7 16.09 Fair CLR 26.7 23.3 27.2 26.7 82% 29 76.02 1013.8
15 00:53 NE 6 16.09 Overcast OVC020 26.7 23.3 82% 29 76.02 1013.8
14 23:53 Calm 16.09 Fair CLR 26.7 23.3 82% 29 76.02 1013.8
14 22:53 SE 6 16.09 Fair CLR 27.2 22.8 77% 30 76.02 1013.8
14 21:53 SW 11 16.09 A Few Clouds FEW026 27.2 22.8 77% 30 76 1013.4
14 20:53 S 7 16.09 Fair CLR 27.2 22.2 74% 30 75.95 1012.7
14 19:53 S 9 16.09 Overcast FEW031 BKN047 OVC085 27.2 22.2 33.9 26.7 74% 30 75.95 1012.5
14 18:53 E 20 16.09 Thunderstorm in Vicinity BKN065 OVC090 30.6 23.3 65% 35 75.9 1011.9
14 17:53 E 19 16.09 Overcast FEW037 BKN060 OVC075 30 24.4 72% 36 75.84 1011.3
14 16:53 NE 11 G 28 16.09 Mostly Cloudy BKN060 32.2 22.8 58% 37 75.82 1010.9
14 15:53 E 19 16.09 A Few Clouds FEW085 32.2 23.3 59% 37 75.84 1011.4
14 14:53 NE 17 16.09 A Few Clouds FEW039 32.8 23.3 57% 38 75.87 1011.7
14 13:53 E 15 G 28 16.09 Overcast BKN043 OVC050 31.7 23.3 33.3 25.6 61% 37 75.9 1012.1
14 12:53 Calm 16.09 Fair CLR 32.8 22.2 54% 37 75.92 1012.2
14 11:53 N 7 16.09 Fair CLR 31.1 23.3 63% 36 75.92 1012.2
14 10:53 Vrbl 7 16.09 Partly Cloudy SCT025 SCT030 30.6 23.9 67% 36 75.95 1012.7
14 09:53 NE 7 16.09 Mostly Cloudy BKN012 28.9 23.9 74% 33 75.97 1013.0
14 08:53 Calm 16.09 Mostly Cloudy BKN009 26.7 25 90% 30 75.97 1013.2
14 07:53 Calm 16.09 Overcast OVC006 25.6 24.4 25.6 24.4 93% 27 75.97 1012.9
14 06:53 NE 6 16.09 Overcast FEW012 OVC017 25.6 24.4 93% 27 75.95 1012.7
14 05:53 Calm 16.09 Fair CLR 25.6 24.4 93% 27 75.9 1011.9
14 04:53 NW 7 16.09 Fair CLR 25 23.3 90% 26 75.84 1011.4
14 03:53 Calm 16.09 Fair CLR 24.4 23.3 94% 24 75.82 1011.1
14 02:53 SW 6 16.09 Fair CLR 25 23.3 90% 26 75.84 1011.3
14 01:53 S 11 16.09 Overcast SCT008 BKN013 OVC020 25.6 24.4 26.7 25.6 93% 27 75.87 1011.7
14 00:53 E 6 16.09 Fair CLR 25.6 24.4 93% 27 75.92 1012.4
13 23:53 E 9 16.09 Fair CLR 26.1 24.4 90% 28 75.95 1012.8
13 21:53 E 6 16.09 A Few Clouds FEW055 26.1 24.4 90% 28 75.9 1011.9
13 20:53 E 6 16.09 Overcast OVC047 26.7 24.4 87% 30 75.9 1011.9
13 19:53 E 6 16.09 Overcast BKN049 OVC060 26.1 23.9 33.9 24.4 88% 28 75.92 1012.2 1.68
13 18:53 SE 7 16.09 Fair CLR 25.6 23.3 87% 27 75.87 1011.8
13 17:53 E 11 16.09 Fair CLR 26.1 23.9 88% 28 75.84 1011.2 0.1
13 16:53 S 9 4.02 Thunderstorm in Vicinity Heavy Rain Fog/Mist BKN035 OVC046 24.4 23.3 94% 24 75.92 1012.4 1.57 1.57
13 15:53 NE 24 G 46 16.09 Thunderstorm in Vicinity FEW032 BKN041 29.4 22.8 68% 33 75.84 1011.4
13 14:53 S 9 16.09 A Few Clouds FEW055 33.3 25 62% 41 75.84 1011.4
13 13:53 NE 11 16.09 Partly Cloudy FEW045 SCT070 32.8 23.9 33.9 26.1 59% 39 75.9 1011.9
13 12:53 N 9 16.09 Mostly Cloudy BKN037 BKN043 BKN055 32.2 23.9 62% 38 75.9 1012.0
13 11:53 Vrbl 6 16.09 Mostly Cloudy BKN029 31.1 24.4 68% 37 75.9 1011.9
13 10:53 NW 7 16.09 Mostly Cloudy BKN016 29.4 23.9 72% 34 75.92 1012.2
13 09:53 SW 13 16.09 Overcast BKN016 OVC021 28.3 24.4 79% 33 75.95 1012.7
Date Time (edt) Wind (kph) Vis. (km) Weather Sky Cond. Air Dwpt Max. Min. Relative Humidity Wind Chill (°C) Heat Index (°C) altimeter (cm) sea level (mb) 1 hr 3 hr 6 hr
6 hour
Temperature (ºC) Pressure Precipitation (cm)